Wind_Speed
36 36 35 34 35 35 35 35 33 30 29 29 29 30 30 29 28 27 26 25 25 26 25 24 24 24 24 24 23 22 22 22 21 20 21 20 19 17 15 15 16 15 14 13 12 12 11 11 11 11 10 10 10 10 9 10 10 10 10 10 10 10 11 11 10 12 17 17 16 17 16 15 15 16 16 16 16 17 18 20 21 22 24 25 26
37 37 36 35 36 36 35 35 34 31 30 29 29 29 30 30 29 28 27 26 26 26 27 25 25 25 25 24 24 24 24 24 22 21 22 22 20 19 18 17 17 16 16 15 14 14 13 12 12 12 12 12 12 12 11 11 11 12 12 12 13 12 12 14 13 12 15 16 15 16 16 16 17 18 17 18 18 18 20 22 23 23 24 25 25
37 37 37 37 37 37 35 34 34 33 31 30 29 29 29 30 30 29 27 27 27 27 28 27 26 26 26 25 25 25 25 25 24 23 23 23 22 20 19 19 19 17 17 16 16 15 14 14 14 14 13 13 14 14 13 13 13 13 13 13 14 14 13 15 16 15 16 17 17 17 17 17 18 18 17 17 18 19 20 21 22 23 24 24 24
36 36 37 37 36 36 36 35 34 34 32 31 30 30 29 29 30 30 28 27 27 28 28 28 28 28 27 26 26 26 25 26 26 24 24 24 23 22 20 20 20 20 19 18 17 17 16 16 16 15 14 14 15 15 15 15 15 14 14 14 13 14 13 14 16 17 16 17 18 18 19 19 20 21 20 20 21 21 21 22 22 23 24 23 23
36 37 36 36 35 36 36 35 35 35 34 32 32 31 29 28 29 30 29 27 28 28 29 29 29 30 29 27 26 27 26 26 27 26 25 24 24 23 21 21 21 20 21 20 18 18 18 18 18 16 16 16 16 16 16 16 16 15 15 15 15 15 15 16 17 18 18 19 19 19 19 20 21 21 20 20 21 21 21 21 21 21 22 21 21
36 36 36 36 36 36 36 36 35 36 36 33 32 32 30 29 29 29 30 29 28 28 29 30 30 31 32 30 28 28 27 27 27 27 25 24 24 24 22 22 21 21 21 20 20 20 20 20 19 18 18 18 17 17 17 17 17 16 16 17 17 16 16 17 18 19 20 20 20 20 20 20 21 22 20 18 18 19 18 18 18 18 18 19 19
36 36 36 36 37 37 37 37 36 36 36 34 32 32 32 30 29 29 30 30 29 28 28 29 30 30 32 32 30 29 29 28 28 29 27 25 25 24 23 22 22 21 21 21 21 20 21 21 21 20 20 20 19 18 18 18 18 18 18 18 18 17 17 17 17 18 19 20 19 19 20 20 20 21 19 16 16 17 17 17 17 16 15 16 17
36 36 36 36 38 39 39 38 37 37 36 35 33 32 32 31 31 31 30 30 29 28 28 29 29 29 30 32 31 30 30 30 29 30 30 27 26 26 24 23 22 21 21 21 21 21 21 21 21 21 21 21 21 20 19 19 19 19 19 19 18 18 18 17 17 18 18 18 18 18 18 19 19 19 19 17 17 17 17 17 18 18 16 15 15
35 35 36 37 38 39 39 37 37 37 36 36 34 33 33 32 32 32 32 31 30 29 29 29 29 29 28 30 30 29 30 31 31 31 31 30 27 26 25 25 23 22 22 22 21 21 22 21 20 21 22 23 23 22 21 21 20 20 20 19 19 19 18 18 17 17 17 17 18 18 17 18 18 18 18 17 17 17 17 16 17 16 15 15 15
35 35 36 36 37 38 38 37 37 37 37 37 36 34 32 32 32 32 33 32 30 31 30 29 29 29 29 29 30 29 29 30 31 32 33 33 30 27 26 26 25 24 23 23 22 22 22 22 21 21 21 23 24 23 23 22 22 22 21 19 19 19 19 19 18 18 17 17 18 17 16 17 17 17 17 16 16 16 14 12 12 14 16 16 16
35 35 35 35 35 37 37 37 37 38 38 39 38 36 33 33 32 31 32 33 32 32 32 30 29 29 29 29 29 29 28 28 31 33 34 33 33 30 27 27 26 26 25 24 24 24 23 22 22 21 21 21 22 22 23 23 23 24 24 23 22 20 20 19 18 18 17 18 19 18 17 17 17 16 16 15 14 13 13 13 14 16 16 14 14
34 34 33 33 34 36 37 37 36 37 38 39 39 38 35 33 33 33 32 33 33 32 32 32 30 29 29 28 28 28 28 29 31 33 35 34 34 32 29 27 27 27 27 26 26 25 25 24 22 22 21 21 21 22 22 23 24 25 26 27 27 26 25 24 22 21 19 18 18 19 19 19 17 16 14 13 12 13 14 16 17 16 15 13 13
33 33 32 33 34 35 36 36 36 37 38 38 39 39 37 34 34 34 32 32 33 32 31 31 31 30 29 29 29 28 28 29 30 33 35 36 35 33 30 27 26 26 27 27 27 27 27 26 25 23 22 21 21 22 24 25 26 26 27 28 29 29 29 30 30 29 28 26 24 25 26 23 19 17 15 13 15 16 17 18 18 16 15 14 15
32 33 33 33 35 35 36 36 36 36 37 37 37 38 38 36 34 34 32 31 32 32 30 30 30 30 30 30 30 29 27 28 31 33 34 36 36 36 32 28 26 26 26 27 27 27 27 27 27 27 25 23 22 22 23 25 26 26 27 27 29 29 29 30 30 31 32 33 32 34 35 31 27 25 23 22 22 22 21 20 16 15 17 18 20
30 33 32 33 34 34 35 35 34 35 35 36 36 37 38 37 34 33 32 31 31 32 31 30 30 31 30 28 29 29 28 28 29 32 34 35 36 37 36 30 25 24 25 26 27 27 27 27 28 27 27 26 24 23 22 23 24 24 24 25 27 28 28 29 29 28 28 30 32 34 35 33 31 29 27 24 22 19 17 16 15 17 20 22 22
29 32 32 33 34 35 35 34 33 34 35 35 35 36 37 37 35 33 32 30 30 30 31 30 29 30 30 29 28 27 26 28 29 31 33 34 35 36 37 34 29 25 24 23 24 26 27 27 27 27 27 27 26 25 24 24 24 23 23 23 23 23 25 25 25 24 23 22 23 24 24 24 23 22 21 19 18 16 16 17 20 21 20 19 18
28 33 33 33 35 35 35 35 34 34 34 35 35 36 36 36 36 34 32 30 29 29 30 29 29 29 30 30 29 27 26 27 28 30 32 34 35 35 36 36 33 31 27 24 22 22 23 25 26 26 27 28 27 26 25 24 25 25 24 22 21 21 21 21 19 19 20 20 20 19 18 18 18 19 20 20 20 20 19 21 23 21 16 13 12
28 33 35 34 36 36 36 36 35 34 35 35 34 34 35 35 35 34 32 29 28 29 29 29 29 28 29 30 30 30 28 27 28 29 30 32 34 35 36 35 33 31 30 28 27 24 23 24 25 25 27 28 27 26 25 25 26 27 26 23 21 21 21 20 18 18 20 20 20 20 20 20 21 22 23 22 21 20 20 23 23 18 12 11 11
31 35 36 35 35 35 35 35 35 35 35 35 33 32 32 33 34 33 32 30 28 27 27 27 27 27 28 29 30 31 30 30 30 30 30 31 33 35 36 34 31 29 28 27 28 29 30 29 29 29 30 30 29 27 25 25 26 27 27 24 23 23 22 20 19 19 20 20 20 21 21 23 24 24 21 18 15 15 17 21 21 16 13 14 14
34 34 35 34 33 33 34 35 35 35 34 33 32 31 30 30 31 32 32 30 29 27 26 26 26 26 27 27 29 31 31 31 32 33 33 33 33 35 35 33 31 29 27 25 26 28 31 32 33 34 34 35 34 32 30 28 27 27 26 25 24 24 21 18 17 17 17 16 16 16 15 15 18 17 13 11 11 12 15 18 19 18 18 16 12
33 32 33 33 33 32 33 34 34 33 33 33 31 30 30 30 31 32 31 30 30 28 27 26 25 25 26 26 27 29 31 31 33 34 35 35 35 36 36 34 32 30 28 27 27 26 27 30 32 34 35 36 37 36 35 34 30 28 26 26 26 23 19 17 16 14 12 11 12 12 10 10 11 11 11 11 11 13 16 18 18 17 15 12 9
31 32 34 34 32 32 32 33 33 31 30 33 32 30 30 30 30 31 30 29 30 30 28 27 25 24 25 26 27 28 29 31 33 33 34 36 37 38 38 36 34 32 29 27 28 28 27 28 29 31 32 33 33 34 35 35 34 32 30 29 27 24 22 21 19 16 14 12 12 12 13 12 11 11 12 12 12 12 9 8 11 12 10 9 9
32 32 33 32 31 31 31 31 33 32 30 32 33 31 30 30 29 30 30 29 29 29 28 28 25 23 24 25 27 28 28 30 33 35 34 34 36 38 39 38 36 34 30 28 28 29 28 27 26 26 27 28 28 29 30 31 33 34 34 33 30 28 26 25 23 21 18 16 15 15 16 15 13 13 13 13 13 13 9 7 8 8 8 9 10
32 30 32 31 29 29 29 29 31 31 30 31 32 30 30 30 29 30 30 29 27 27 28 27 25 23 22 23 24 26 27 27 30 34 35 34 34 36 39 40 39 36 33 29 27 25 24 24 24 24 24 25 25 25 26 27 29 30 31 32 32 31 30 29 27 25 23 21 21 20 19 18 18 18 17 16 15 16 13 9 7 7 7 7 7
31 29 30 30 29 28 27 28 30 31 30 30 31 31 30 29 28 28 29 28 26 25 25 26 25 24 23 22 22 23 24 24 25 29 32 34 34 35 37 39 40 39 36 32 27 23 21 20 21 22 22 23 24 24 24 24 25 25 26 27 29 31 30 29 27 25 23 23 22 21 21 21 22 22 19 17 18 17 13 10 9 8 7 5 4
31 30 29 28 29 29 28 28 29 30 30 30 30 30 30 29 28 27 28 27 25 24 24 24 24 24 23 22 22 21 22 23 24 26 29 32 34 35 35 37 39 40 39 35 29 25 24 21 19 19 18 19 21 23 25 24 23 23 24 25 26 27 28 27 25 24 24 23 21 21 21 21 21 21 19 18 17 15 12 11 8 6 5 4 4
29 28 29 28 28 29 29 29 30 30 30 30 30 29 29 29 27 27 27 26 25 24 24 24 23 23 22 23 22 22 22 23 24 26 29 32 34 35 35 36 38 41 42 39 33 29 27 24 21 18 16 15 15 18 22 23 23 23 24 25 25 25 25 25 24 24 25 24 22 22 21 19 18 18 19 19 16 12 11 10 6 3 3 4 6
29 27 27 27 28 29 29 29 30 30 29 29 30 29 28 28 28 29 30 29 27 26 25 25 25 24 23 23 23 23 23 24 24 25 28 31 33 34 36 37 39 42 43 42 40 35 28 23 20 19 17 16 15 15 17 20 22 23 23 23 23 24 25 25 24 24 25 24 22 21 20 19 17 17 18 16 13 11 10 8 5 5 6 6 7
27 28 28 27 28 29 29 29 30 30 28 29 28 28 28 28 28 28 30 30 28 27 26 26 26 25 24 24 24 23 23 25 26 26 27 29 30 33 35 37 39 40 39 40 40 37 30 25 21 19 18 18 16 16 17 18 20 21 22 23 23 23 25 26 25 25 24 24 23 22 19 18 16 15 14 13 11 12 12 9 7 8 8 8 9
26 26 27 28 29 30 29 30 30 29 28 28 27 25 25 26 26 26 28 29 27 25 25 25 24 24 23 23 24 24 24 25 26 26 26 26 27 29 32 33 34 35 35 36 37 34 29 27 25 23 21 19 18 19 20 21 21 21 22 23 23 22 23 26 27 27 26 25 25 24 21 18 16 14 13 13 14 14 13 9 8 8 9 10 11
25 25 24 26 29 30 29 29 30 28 27 26 26 24 22 21 21 24 27 28 27 25 24 25 25 24 24 22 23 24 24 23 23 24 25 26 26 27 28 29 29 29 30 32 34 30 26 25 25 25 24 22 22 22 22 23 23 23 23 23 23 23 24 24 25 27 27 25 24 24 23 19 15 14 14 14 14 14 13 11 10 9 11 12 10
13 21 25 27 28 29 28 28 27 27 26 24 25 26 23 18 15 16 22 28 30 27 24 24 24 25 24 22 20 22 23 22 22 22 23 24 25 25 25 25 24 24 25 28 29 29 26 24 23 23 24 24 23 23 23 23 23 23 23 22 22 23 25 24 22 22 23 24 24 23 21 17 14 14 14 13 13 13 13 13 13 13 12 11 8
15 16 18 24 28 28 26 26 27 25 24 24 24 24 24 20 15 13 16 22 27 27 23 20 20 21 21 18 16 16 18 19 19 19 19 20 21 22 22 21 19 20 23 26 26 25 24 24 23 22 23 24 24 23 23 24 23 23 23 23 22 21 21 23 21 17 17 21 22 19 16 14 12 11 10 8 8 8 10 12 13 13 12 9 7
14 21 26 19 26 28 23 23 27 24 21 23 24 23 22 21 18 16 15 15 17 20 20 19 18 17 17 15 13 12 13 14 15 16 16 18 19 20 21 21 20 20 23 26 25 23 22 23 24 24 24 24 24 23 24 24 24 23 21 21 22 19 16 19 21 16 12 14 15 13 11 9 6 6 6 4 3 6 8 10 11 11 9 6 6
11 12 26 21 21 26 20 19 25 24 18 20 23 22 22 22 20 19 18 15 14 15 16 18 19 17 16 15 13 12 11 12 13 15 16 18 20 22 22 23 23 24 25 26 25 22 21 22 23 24 24 24 24 24 23 21 21 22 20 18 20 18 14 15 15 10 6 6 5 4 5 6 7 7 7 7 8 10 11 12 11 9 6 4 4
9 8 14 17 13 17 14 14 19 20 17 17 18 19 20 20 19 19 20 20 18 16 15 16 18 18 17 17 16 14 13 13 13 14 16 18 20 22 23 23 23 24 27 27 25 22 20 21 21 21 23 23 22 24 24 22 20 19 17 16 16 13 10 10 9 7 7 5 3 4 8 9 9 8 7 9 12 14 13 11 10 9 6 4 4
2 2 6 10 10 13 15 15 16 15 15 14 14 14 15 16 15 15 16 17 17 15 15 17 17 16 15 15 14 13 13 14 14 15 16 18 20 21 21 20 19 19 22 25 24 22 20 19 19 19 20 20 20 20 21 22 20 14 11 13 14 13 11 10 9 9 11 10 9 11 12 9 8 7 5 7 10 11 10 9 11 10 7 4 3
9 11 10 5 12 16 16 16 16 16 16 15 14 12 12 12 11 10 10 12 15 16 16 16 15 12 11 11 11 11 12 13 15 16 17 19 20 20 18 15 14 15 17 19 21 20 19 18 17 16 14 13 12 10 9 10 12 12 13 14 14 15 16 14 11 12 15 15 13 13 12 9 10 11 10 11 13 11 9 9 10 11 12 9 5
12 12 14 14 14 16 16 15 14 14 14 12 11 10 10 10 9 7 7 10 14 15 14 12 11 9 7 6 6 7 8 9 10 12 14 16 19 20 17 13 12 14 15 16 18 20 19 16 12 9 7 5 5 5 5 5 7 11 13 14 13 14 14 13 13 16 17 14 11 12 11 9 9 12 11 12 11 10 8 7 7 9 10 9 6
14 14 17 19 16 15 17 18 16 17 17 14 11 9 10 11 11 10 11 16 19 19 18 17 16 13 8 6 6 5 3 4 6 7 8 11 14 15 14 9 7 7 7 8 10 12 11 9 6 5 5 5 4 5 6 6 9 13 14 12 13 16 16 16 16 17 15 11 9 10 11 10 10 12 11 9 8 9 9 9 8 7 6 5 4
19 18 22 25 22 20 23 25 24 23 22 21 20 18 19 21 21 20 21 22 21 20 19 18 17 13 8 6 6 5 4 3 3 4 4 5 5 5 4 3 4 5 5 6 6 8 12 13 11 9 9 8 7 8 9 10 12 15 14 12 14 16 15 14 14 13 12 12 12 11 11 12 12 12 11 9 8 9 9 8 7 6 7 9 9
26 23 25 28 28 26 25 26 26 25 24 25 24 22 22 22 21 21 22 22 20 18 18 18 17 15 12 8 7 8 9 10 10 10 12 13 14 14 14 13 13 12 12 14 14 15 16 17 16 15 15 14 13 14 16 16 15 15 14 14 15 15 12 12 12 11 11 12 13 11 12 13 13 11 9 10 9 8 7 7 7 8 9 9 7
28 27 27 29 29 28 25 24 25 25 24 23 22 21 21 21 21 21 22 23 21 18 17 16 17 18 18 15 12 13 15 17 17 18 19 20 21 22 21 20 19 18 17 18 19 19 19 21 22 21 20 19 18 19 19 18 18 18 17 16 15 14 14 14 13 11 10 11 11 10 10 11 11 9 7 8 8 8 8 8 10 10 9 6 6
27 27 27 27 26 26 25 25 25 24 22 21 22 21 21 20 20 21 21 22 22 22 20 19 19 20 20 18 17 19 20 21 22 24 25 25 25 25 25 24 24 24 23 23 23 23 23 24 25 25 25 23 22 21 19 18 18 18 18 17 16 16 16 15 14 13 10 8 8 9 9 9 9 9 8 9 10 10 9 7 8 8 6 6 8
27 25 25 26 25 24 24 24 24 23 22 21 21 21 21 21 21 22 22 22 23 24 24 24 23 22 21 20 21 21 21 21 22 22 24 25 25 25 25 25 25 25 25 25 24 24 25 25 25 26 26 27 27 26 24 23 22 21 20 20 19 18 16 14 13 12 9 6 4 5 5 4 4 5 6 7 8 8 6 4 5 6 7 7 7
24 24 24 25 25 23 22 22 22 22 21 20 20 21 22 22 24 24 23 23 24 25 26 27 27 26 24 24 23 22 23 24 24 24 23 24 25 26 26 26 25 25 25 24 24 24 25 26 27 27 27 27 27 27 27 25 24 22 21 20 19 17 15 13 10 9 8 7 8 7 5 4 4 6 7 5 4 4 5 5 6 7 8 8 9
23 23 22 23 24 23 23 22 21 21 21 20 20 21 22 22 24 24 23 23 22 22 23 25 27 27 26 25 25 25 25 26 27 27 26 25 26 26 26 26 26 26 25 24 24 24 25 25 26 26 26 26 26 25 24 23 22 21 19 17 16 14 12 11 9 9 9 10 10 10 8 8 9 10 11 12 12 11 11 10 10 9 9 10 11
21 21 21 22 24 25 23 21 21 20 20 19 20 21 22 23 23 23 23 23 23 22 22 23 23 24 24 23 23 24 26 27 28 28 28 27 27 27 27 27 27 27 27 26 26 26 26 26 26 26 25 25 25 24 23 21 20 18 17 16 14 12 9 7 7 8 9 10 11 11 10 11 11 11 11 12 12 12 11 10 10 10 10 11 12
20 20 20 21 23 23 21 19 18 18 18 19 21 22 22 22 22 23 25 26 27 27 26 25 24 23 23 22 22 23 25 26 27 28 28 28 29 28 28 29 30 31 31 32 32 31 30 30 29 28 27 27 26 25 24 22 20 19 17 16 14 11 8 6 6 8 9 9 9 9 9 9 10 10 10 11 11 11 11 11 12 12 12 12 13
20 20 19 19 20 19 18 18 19 18 18 20 21 21 22 22 23 23 24 26 28 29 28 27 26 25 24 22 22 23 24 25 25 26 27 28 29 30 31 33 33 34 33 32 31 31 31 31 31 30 29 28 27 26 26 25 23 21 19 16 13 10 8 6 6 6 6 7 7 8 8 8 9 10 10 12 13 14 14 15 16 16 16 16 17
21 20 19 19 19 19 19 20 20 19 19 19 20 20 21 22 22 23 24 25 26 28 28 27 28 28 26 25 25 25 24 24 24 24 25 26 26 28 30 31 32 32 33 33 32 31 31 31 31 31 30 29 28 27 26 26 24 21 19 17 14 12 10 9 8 7 7 6 7 7 7 8 9 10 10 12 13 14 14 15 16 16 17 17 18
Wind_Direction
188 187 187 187 186 187 188 189 191 193 195 196 197 198 200 201 201 203 203 203 203 205 204 200 199 201 202 204 204 203 203 203 204 207 210 213 214 216 218 219 219 220 222 224 226 230 234 236 239 239 237 237 240 243 247 249 243 238 240 244 246 244 241 240 244 263 274 280 284 284 287 289 285 280 277 278 278 276 276 276 276 277 277 279 280
189 187 187 187 186 185 186 188 189 191 194 196 197 198 199 200 201 201 202 202 201 203 204 203 202 201 202 204 205 205 204 203 203 205 209 213 214 215 216 216 217 218 220 223 225 226 228 233 237 238 236 234 237 239 243 246 242 236 235 235 241 245 241 238 239 251 268 276 279 282 286 284 281 281 281 280 280 277 276 276 276 278 279 281 282
190 188 187 187 186 185 185 186 188 190 193 195 197 198 198 200 201 201 201 201 201 202 203 203 203 203 203 204 206 206 205 204 203 204 208 212 213 214 215 216 216 216 219 222 223 222 224 228 232 235 235 233 233 237 240 244 246 246 243 239 235 235 240 242 239 242 259 271 274 277 281 282 280 281 282 281 281 280 278 279 279 280 281 282 283
189 187 188 187 185 184 185 186 187 190 193 195 197 197 197 198 199 200 200 200 199 200 201 202 202 203 203 204 206 207 207 206 204 205 208 211 213 214 215 218 219 217 219 222 222 221 221 224 228 230 232 233 233 236 239 243 247 250 253 254 247 241 243 246 246 247 254 263 270 273 276 279 280 281 282 282 281 279 277 278 280 282 283 284 285
189 187 187 187 184 184 186 187 188 190 193 195 196 197 197 196 197 198 198 199 199 199 200 200 201 202 203 204 206 206 207 207 205 205 208 210 213 215 215 217 219 220 221 222 224 224 224 225 227 228 230 233 234 235 237 240 243 246 249 252 253 252 251 250 252 255 256 261 269 274 278 281 282 284 285 284 283 281 279 278 281 283 285 285 284
190 187 186 185 185 185 186 188 190 191 193 195 195 196 197 196 196 197 198 199 198 198 199 200 201 203 203 204 206 206 206 207 207 206 207 209 211 213 216 217 219 221 223 224 225 226 227 228 229 228 228 230 232 233 236 238 239 242 245 248 250 251 252 251 252 254 257 261 268 274 277 279 281 284 285 284 281 280 280 282 283 285 287 286 284
189 186 187 187 186 186 187 189 191 192 194 196 196 195 196 196 196 196 198 199 199 199 198 200 202 203 204 205 206 207 206 206 208 208 207 209 210 211 213 216 219 221 223 225 227 226 227 229 229 229 228 229 229 230 233 236 238 240 243 246 249 250 251 254 255 255 256 259 264 269 272 275 278 280 285 288 283 278 279 280 280 284 289 290 290
190 187 187 189 187 188 189 189 191 192 193 196 196 196 197 197 197 196 196 199 201 201 199 199 201 203 204 206 206 207 207 207 208 209 208 209 210 210 212 214 217 220 222 224 227 227 227 228 228 230 230 229 229 230 232 235 238 240 242 245 248 249 250 252 256 258 259 260 263 265 270 274 276 278 284 285 278 274 275 273 273 280 287 290 293
191 188 189 190 189 189 189 188 190 191 193 195 197 198 198 198 198 195 195 198 201 203 202 199 199 201 204 206 206 206 207 207 208 209 209 210 210 210 211 213 215 218 220 223 226 228 229 229 229 230 231 231 231 232 233 233 235 239 242 244 244 246 248 249 252 256 260 263 265 268 271 273 275 278 280 278 274 276 278 274 273 283 295 299 298
191 190 190 192 190 189 188 188 190 190 191 194 196 198 198 198 199 197 194 197 200 203 204 200 197 199 202 204 205 207 208 208 209 210 211 211 211 210 211 213 215 216 219 222 225 228 230 231 232 233 234 234 233 235 237 235 234 236 239 242 243 242 244 246 248 251 255 259 263 266 268 269 272 276 277 280 286 289 291 295 301 310 316 313 306
191 191 192 192 190 188 188 189 189 189 190 192 195 197 198 197 200 199 196 196 199 202 204 202 198 198 200 202 203 206 209 209 209 211 213 213 212 211 211 212 214 216 219 222 225 228 230 232 234 236 239 240 239 238 239 240 240 240 241 242 244 243 243 245 246 248 251 255 260 264 264 266 271 275 279 287 294 296 303 314 320 318 316 310 304
192 192 191 190 189 188 189 189 189 190 191 192 193 195 197 197 199 200 198 196 198 201 203 204 202 199 199 202 203 205 209 212 212 212 214 216 215 213 213 213 215 217 219 223 225 228 230 232 234 236 237 240 242 241 241 243 245 248 249 250 251 251 250 250 249 250 250 254 261 263 262 266 272 277 283 292 299 303 306 308 309 309 307 305 302
190 191 189 189 189 189 189 190 190 191 192 192 193 194 196 198 198 200 200 196 196 200 203 205 206 203 200 201 204 207 210 213 214 214 215 217 217 216 215 215 217 218 220 223 226 228 231 232 233 236 236 237 238 237 239 243 246 248 251 254 256 257 256 255 254 254 255 257 261 262 262 266 271 275 279 284 290 297 298 297 300 302 303 304 301
187 188 188 188 188 189 190 191 192 193 193 192 192 193 196 198 198 198 198 197 196 198 202 206 209 208 206 203 204 208 212 214 215 216 216 218 219 218 217 217 219 221 222 224 225 227 231 232 233 236 237 237 237 234 235 239 244 246 248 251 254 257 258 258 257 256 256 256 257 258 260 263 266 269 272 276 281 287 288 288 291 295 298 301 300
187 185 186 186 187 188 190 192 193 193 193 192 192 194 196 198 198 197 197 198 197 198 201 205 209 211 212 209 205 208 214 216 217 217 218 220 222 221 219 218 220 223 225 226 227 228 230 232 235 238 239 239 239 236 234 236 240 244 246 249 253 257 258 260 261 261 260 258 257 258 262 266 268 271 275 277 279 281 281 281 285 291 297 300 303
187 183 185 184 186 188 189 192 194 193 192 192 193 194 196 197 198 197 197 199 199 199 201 205 209 211 213 214 212 212 216 218 218 218 219 221 222 221 220 220 222 226 228 228 229 230 230 231 234 238 241 242 242 239 235 235 238 241 244 247 252 256 259 264 267 267 267 266 264 264 268 271 274 277 277 273 269 269 275 280 285 289 294 299 301
187 183 186 184 184 188 188 191 194 193 193 194 194 195 196 196 197 197 197 199 200 199 201 204 209 210 211 214 216 217 219 220 221 221 220 220 219 218 220 221 223 228 231 232 232 232 233 232 233 236 240 243 244 242 239 236 235 238 241 244 247 252 257 263 269 271 273 273 272 273 273 274 274 272 269 266 265 270 276 278 280 283 284 286 288
191 185 188 186 186 188 189 191 193 192 193 195 195 195 195 195 197 197 197 199 201 200 201 203 207 210 211 213 215 217 220 222 223 223 222 220 217 216 217 219 222 227 232 235 237 238 237 236 235 236 239 242 244 244 242 237 234 236 240 242 245 249 253 257 263 270 273 272 269 268 267 266 265 263 264 267 270 273 272 271 275 278 273 270 278
195 189 188 187 187 187 188 191 192 192 194 194 194 194 193 193 195 197 198 201 202 201 201 203 207 211 212 214 214 215 219 223 225 224 224 221 217 215 215 215 218 224 228 232 236 238 238 239 238 238 239 241 243 244 244 240 235 235 238 240 244 248 251 256 261 264 266 267 266 264 262 261 260 261 266 269 269 269 268 268 271 266 257 264 276
197 192 187 185 186 187 189 191 191 192 192 192 192 192 191 192 195 196 199 202 204 204 202 203 207 211 212 214 215 214 217 221 225 225 224 222 219 214 212 212 215 219 223 226 230 234 236 237 238 239 240 241 242 243 244 244 240 237 236 236 241 246 249 254 258 258 258 260 262 264 265 260 255 256 262 264 264 271 274 272 269 261 254 260 271
194 189 186 185 185 187 190 191 191 191 191 190 191 191 191 193 194 195 198 201 204 206 205 205 208 210 212 214 215 215 216 219 223 226 225 224 222 217 213 213 216 218 220 224 228 231 233 236 237 239 241 242 242 243 244 245 244 241 237 235 239 244 246 245 245 249 255 258 258 259 259 250 241 243 253 258 265 277 279 271 262 254 246 251 270
189 186 184 185 186 186 189 190 189 190 190 189 190 191 191 193 193 194 197 201 202 205 207 207 208 209 211 214 216 217 218 219 222 225 226 226 225 220 216 217 219 220 219 223 227 230 233 235 237 239 242 244 245 244 245 246 246 244 243 241 239 240 242 242 244 251 261 265 262 259 257 252 245 244 249 255 262 272 272 243 225 223 226 248 278
184 183 182 184 186 187 189 189 188 190 191 191 191 191 191 193 194 193 196 199 201 203 207 209 211 210 210 212 215 218 220 221 222 223 225 227 226 224 222 222 222 221 221 223 227 232 235 237 239 242 244 246 246 246 245 245 245 246 247 246 243 240 240 242 247 252 257 260 260 257 255 251 247 247 251 255 254 251 236 201 199 222 247 268 282
179 178 180 182 186 189 189 187 188 191 192 190 191 191 191 193 194 193 195 197 199 201 204 207 211 214 213 214 215 216 219 222 223 223 223 225 226 226 226 225 223 223 223 224 228 233 238 239 240 242 243 244 246 247 245 244 243 245 247 248 247 245 244 244 247 250 252 254 254 253 249 244 242 246 250 246 239 236 234 233 246 265 273 273 274
173 174 178 182 186 190 191 189 188 191 192 190 190 191 191 192 194 192 193 196 198 199 201 203 207 212 216 218 218 217 217 219 223 224 224 225 227 227 227 227 225 224 224 225 228 232 235 237 236 237 239 241 243 243 242 240 240 240 242 244 246 247 247 247 247 245 244 245 245 243 241 241 243 247 245 236 230 231 236 246 258 266 273 274 272
170 172 176 182 187 191 193 191 190 191 192 190 192 192 190 191 193 191 191 195 198 198 198 199 203 208 214 217 218 217 217 217 220 223 224 225 227 228 228 228 227 226 225 225 226 229 234 238 239 240 242 244 243 240 237 236 235 234 235 237 241 244 246 245 242 238 235 235 234 233 234 238 243 240 230 222 221 224 232 244 252 265 279 274 265
169 171 175 182 188 193 195 193 191 192 192 190 193 194 192 192 193 190 190 194 197 197 196 197 200 204 208 213 216 217 216 216 216 219 220 221 223 225 226 227 227 226 224 223 223 227 232 238 245 250 253 255 251 243 237 234 231 228 228 230 234 239 241 240 236 233 231 228 227 229 231 234 234 222 211 210 214 220 232 241 239 238 237 231 245
168 170 177 183 188 193 194 191 190 192 192 190 191 193 192 192 193 192 192 194 194 194 195 196 198 200 203 206 211 215 217 216 215 215 216 218 219 220 223 225 226 225 224 224 225 227 230 236 244 249 253 254 250 240 234 230 228 226 226 229 232 237 239 237 233 231 230 227 226 225 223 222 219 209 204 208 211 214 221 222 218 225 219 214 236
171 173 179 185 191 194 192 188 189 191 190 189 190 192 192 193 193 193 195 197 196 195 196 197 198 200 202 204 205 209 215 217 217 217 219 220 219 220 222 226 227 227 228 229 227 226 227 231 236 239 240 241 237 229 224 223 223 225 228 231 233 235 235 231 227 226 226 223 221 218 213 209 205 200 201 204 197 195 200 203 217 229 217 216 235
174 178 183 188 193 195 192 189 189 190 188 186 185 185 187 191 193 193 194 197 199 199 199 201 201 201 204 208 208 210 216 219 219 222 223 221 220 223 227 230 231 230 232 231 226 223 225 227 228 231 232 233 230 226 223 222 220 221 224 227 228 228 228 226 223 223 223 221 217 214 210 208 204 197 198 195 183 181 191 205 220 218 209 220 231
177 180 188 194 194 192 190 188 187 186 185 184 179 173 174 180 186 191 193 194 197 201 201 202 205 205 206 210 211 212 218 220 220 223 224 222 221 223 227 231 231 231 232 229 221 217 221 225 226 228 230 233 233 230 227 227 227 227 227 227 226 227 228 226 223 221 220 218 214 212 212 212 206 199 201 197 185 183 195 208 214 207 208 222 224
211 193 192 195 192 188 186 183 183 184 183 180 174 168 165 163 163 174 184 188 194 202 204 202 204 207 208 210 212 213 218 221 222 224 225 224 221 220 221 224 225 224 226 224 217 214 217 222 224 226 227 230 232 231 231 231 232 231 228 225 226 230 230 229 230 227 219 213 210 208 210 212 207 205 206 199 185 182 192 202 206 207 213 222 208
265 253 226 200 186 185 186 179 177 183 181 174 169 166 166 165 157 151 164 179 189 197 200 198 198 201 203 205 209 212 214 215 216 218 218 217 213 209 209 211 209 208 212 213 211 212 216 219 222 225 225 226 229 232 232 232 233 236 231 222 223 232 234 229 232 232 218 209 206 201 201 206 208 203 195 182 179 192 202 207 209 210 214 216 186
233 276 277 238 185 181 188 176 171 180 181 170 165 164 167 171 167 155 152 162 178 190 197 199 198 198 199 200 199 199 201 201 201 202 202 201 199 196 197 199 200 201 206 209 209 211 214 218 222 225 225 225 227 231 235 234 232 237 237 223 219 231 237 227 225 225 210 197 195 191 190 195 187 159 141 143 201 230 226 221 218 213 208 200 173
190 262 281 262 194 180 185 172 167 178 180 165 161 163 169 176 177 170 165 166 171 179 192 202 206 207 208 208 203 196 192 191 192 194 192 192 191 190 191 195 197 200 204 208 211 213 215 218 223 226 228 228 228 230 237 240 235 234 235 225 215 219 222 211 207 201 168 151 145 128 129 132 132 138 156 180 198 213 223 224 216 203 192 190 180
175 190 253 254 206 171 160 149 158 169 168 157 154 157 165 173 177 175 174 177 181 181 182 192 202 208 213 216 214 206 196 189 186 189 191 192 193 191 191 193 197 202 207 209 213 219 224 226 228 230 231 233 234 231 233 239 240 236 229 215 202 198 194 187 184 170 142 124 100 105 120 128 140 156 181 197 196 202 213 207 182 173 181 193 187
168 157 247 235 181 140 120 116 130 142 143 144 149 156 165 173 177 178 175 172 172 169 167 175 188 198 207 214 217 212 204 197 192 193 194 196 198 199 199 200 202 207 211 213 217 225 232 234 237 239 239 241 244 241 234 233 234 227 207 196 196 194 183 173 167 160 153 150 149 146 143 151 167 172 203 233 219 211 208 184 165 173 191 193 175
16 9 5 59 115 114 105 103 109 115 119 125 135 148 159 162 164 174 173 159 149 146 150 163 174 179 188 203 213 216 217 214 209 207 206 203 203 205 208 213 220 224 222 219 220 228 237 241 242 244 245 244 245 243 230 216 208 198 190 191 192 189 182 171 153 145 152 161 167 164 166 184 188 180 200 230 228 216 206 187 179 192 202 206 216
16 17 22 42 74 93 100 102 102 101 99 98 107 126 136 135 140 156 157 137 127 121 120 119 112 111 132 166 186 200 215 220 217 214 213 211 210 210 213 225 245 248 240 229 224 226 232 236 230 220 212 206 205 203 196 180 164 167 172 172 163 155 158 161 154 147 148 154 163 169 179 195 191 184 201 225 223 209 200 196 202 211 208 207 214
8 23 28 27 37 64 84 86 82 81 78 67 65 79 84 80 84 90 87 89 90 89 87 83 79 79 93 116 125 135 178 214 211 208 211 215 217 217 218 232 265 272 257 242 227 214 205 193 174 156 143 134 131 150 171 177 161 150 148 147 142 137 137 143 147 147 150 159 170 175 184 194 191 187 199 215 210 195 196 203 212 216 209 210 223
18 32 37 33 33 47 64 68 66 68 70 66 63 63 60 59 63 69 71 74 78 78 77 75 73 72 82 110 125 119 101 115 152 158 156 163 171 170 157 104 61 66 78 85 104 124 124 118 112 108 109 108 107 117 129 141 154 160 161 158 148 141 142 149 151 150 159 175 180 180 185 188 184 183 193 202 196 189 196 205 209 217 228 234 237
30 38 41 38 35 40 52 61 60 58 60 60 60 61 61 61 62 64 67 70 73 75 77 77 75 73 76 91 112 111 100 97 100 97 92 91 89 88 84 79 75 79 85 86 90 99 105 106 104 104 104 104 105 110 113 116 128 145 156 154 143 136 141 155 160 158 160 162 164 173 183 181 177 180 190 195 195 197 203 208 217 228 237 244 253
36 40 42 40 36 35 42 53 58 58 58 59 60 61 64 66 65 63 66 67 67 68 74 77 73 70 70 75 86 94 93 91 89 85 83 82 80 79 78 78 79 83 88 89 90 93 98 98 96 96 98 101 107 112 114 114 119 125 129 130 126 121 122 131 141 148 149 148 155 172 181 174 174 184 191 188 195 209 216 223 235 239 238 255 282
37 38 42 42 38 35 38 45 53 57 57 58 59 59 61 65 67 67 68 67 65 65 69 70 68 65 64 65 72 78 79 78 77 76 76 76 75 74 74 75 77 80 83 86 87 90 92 91 89 89 91 95 102 109 112 114 117 119 120 120 119 117 116 116 119 128 138 148 167 183 185 179 186 203 211 205 210 221 223 234 259 270 273 285 284
37 37 42 44 41 36 36 40 47 52 54 55 57 57 58 62 67 68 67 67 68 69 70 69 67 65 63 64 67 69 70 70 70 68 68 69 71 73 74 76 78 79 81 83 86 89 90 89 88 90 92 94 97 101 103 107 112 114 114 113 112 112 114 116 120 130 141 146 156 174 185 191 206 231 240 232 232 239 240 250 292 316 332 332 313
41 41 44 48 48 44 39 39 43 48 51 53 57 58 56 57 61 64 66 68 71 73 72 69 69 68 68 67 67 66 67 69 69 68 68 70 73 76 78 80 83 84 85 87 88 89 91 91 91 91 92 92 94 97 99 102 106 109 109 110 108 106 108 111 116 125 127 112 99 100 99 76 42 19 10 9 4 348 342 340 335 332 335 334 325
47 45 45 51 55 54 49 45 47 50 52 53 56 59 60 60 62 65 67 69 71 72 70 67 68 69 69 68 69 70 70 71 72 74 76 79 81 83 85 86 87 88 89 91 92 91 91 92 93 92 90 89 89 92 94 96 98 99 100 102 101 98 96 97 100 98 92 82 77 77 72 54 36 23 14 11 11 10 6 359 350 341 335 329 322
52 52 51 55 60 62 58 53 54 57 58 59 60 62 64 67 69 70 71 70 71 72 70 67 66 65 65 67 69 71 73 74 76 77 80 81 83 87 89 90 90 90 90 91 92 91 90 90 89 89 87 84 82 82 84 86 87 88 87 85 81 77 76 77 71 60 53 50 49 49 45 35 26 21 16 12 14 18 19 14 6 356 347 342 338
56 57 56 57 62 67 68 66 65 65 67 70 71 69 69 70 72 73 74 75 76 76 75 73 70 68 67 66 65 65 69 72 73 74 76 77 80 83 87 89 90 90 88 86 85 84 84 83 81 79 78 76 73 72 72 73 74 75 74 72 67 63 60 54 36 20 13 11 14 18 21 23 22 20 18 19 21 21 17 13 9 4 358 354 352
61 63 63 63 65 69 73 75 74 71 70 73 75 74 74 74 75 76 77 79 79 79 79 79 78 76 74 72 69 66 66 67 67 68 71 74 77 80 83 86 86 86 85 83 83 82 81 79 77 75 73 72 69 67 65 63 62 61 61 62 60 55 48 40 26 11 1 358 3 9 14 16 16 11 6 7 10 10 8 6 2 359 356 353 350
66 67 68 68 67 67 68 71 72 71 71 73 75 75 76 77 77 77 78 79 80 82 82 82 82 81 80 80 78 73 69 69 70 69 69 69 70 73 77 78 78 78 79 80 81 81 82 80 79 76 74 71 69 67 65 63 60 57 56 56 56 54 50 45 40 36 33 32 34 37 37 33 29 21 13 10 11 13 13 10 5 1 0 358 353
Height
768 771 773 776 778 781 784 787 791 794 796 799 801 803 806 807 810 812 814 816 819 821 823 824 826 828 830 831 833 834 835 837 839 840 841 842 843 844 845 846 846 847 848 849 850 851 851 851 852 853 853 854 854 854 854 854 854 854 855 855 855 856 856 857 857 855 853 853 852 851 851 851 850 850 850 849 849 848 847 846 846 845 845 843 842
763 766 768 771 774 776 780 783 787 790 793 796 798 800 802 804 806 809 811 813 815 817 820 821 823 825 827 829 830 831 832 834 836 837 839 840 841 842 843 844 845 845 846 847 848 849 849 850 851 851 852 852 852 853 853 853 853 853 853 853 854 854 855 855 855 854 852 851 851 850 850 850 849 848 848 848 847 847 845 844 844 843 842 841 840
759 762 764 767 769 772 776 780 783 786 789 792 794 796 798 801 803 805 808 810 812 814 816 818 820 822 824 826 827 829 830 831 833 835 836 837 838 840 841 842 843 843 844 845 846 847 847 848 849 849 850 851 851 851 851 851 852 852 851 851 851 852 853 853 853 852 851 850 850 849 848 848 847 846 846 846 845 845 844 842 842 841 840 839 838
755 758 760 763 766 769 772 776 779 782 785 787 790 792 795 797 799 802 804 807 808 811 813 815 817 819 821 823 825 826 828 829 831 832 834 835 836 837 839 840 840 841 842 843 844 845 845 846 847 847 848 849 849 849 849 850 850 850 850 850 850 850 851 851 851 850 850 848 848 848 847 846 845 845 845 844 843 843 842 841 840 839 838 838 837
751 753 756 759 762 765 768 771 774 777 780 783 785 788 791 793 796 798 801 803 805 807 809 811 814 815 818 820 822 823 825 826 828 829 831 832 833 835 836 838 838 839 840 841 842 843 843 844 844 845 846 846 847 847 847 848 848 848 848 848 849 849 849 849 849 849 848 847 846 846 846 845 843 843 843 842 841 840 839 839 838 837 836 836 835
746 748 752 755 757 760 764 767 770 772 775 778 781 784 787 789 792 794 797 799 801 804 806 808 810 812 814 816 818 820 822 823 825 826 828 830 831 832 834 835 836 837 838 838 839 840 841 841 842 843 844 844 844 845 845 846 846 846 847 847 847 847 847 847 847 847 846 845 845 845 844 843 841 840 840 840 839 838 837 836 836 835 834 833 832
741 744 747 749 752 755 758 761 765 768 771 774 777 780 783 785 788 790 793 796 798 800 802 805 807 809 810 812 815 817 818 820 822 823 825 827 828 829 831 832 833 834 835 836 837 838 838 839 840 840 841 841 842 843 843 843 844 844 844 844 845 845 845 845 845 845 844 844 843 843 842 841 840 838 837 838 837 836 835 834 833 833 832 831 830
737 740 743 745 747 749 752 756 760 764 768 771 774 776 779 781 784 786 789 792 794 796 799 801 804 806 808 809 811 813 815 817 818 820 822 823 825 826 828 829 830 831 832 833 834 835 835 836 837 838 838 839 840 840 841 841 841 842 842 842 843 843 843 843 844 843 843 842 841 840 840 839 838 837 836 836 835 834 833 832 830 830 830 830 829
733 736 739 740 742 745 748 752 756 760 764 767 771 773 775 778 780 783 785 788 791 793 795 797 800 802 805 807 809 811 812 813 814 816 818 820 822 823 824 826 827 828 829 830 831 832 832 834 834 834 835 836 836 837 838 839 839 839 840 840 840 841 841 841 841 841 841 840 838 838 838 837 836 835 834 833 832 831 831 830 828 827 828 828 827
729 732 734 736 738 742 745 749 752 756 759 763 766 770 772 775 777 779 782 784 787 789 791 794 796 799 801 803 806 808 808 809 811 812 814 816 818 820 821 822 824 825 826 827 828 828 829 830 831 832 832 832 833 834 835 836 836 837 837 838 838 838 838 838 839 839 839 837 836 836 836 835 834 834 833 832 831 830 829 829 827 826 826 825 824
724 727 730 733 737 740 743 746 748 751 754 758 762 766 769 772 774 776 778 781 783 786 788 790 792 795 797 800 802 804 805 806 807 809 811 813 815 817 818 819 820 822 823 824 824 825 826 827 828 829 830 830 830 831 832 832 833 834 834 835 835 836 836 836 836 836 836 835 834 833 833 832 832 832 831 831 830 829 828 827 826 825 825 824 822
720 724 727 731 734 737 739 742 745 748 751 754 757 761 765 768 770 773 775 777 780 783 785 787 788 791 793 796 798 799 801 802 804 805 807 809 812 813 815 816 817 818 820 820 821 822 823 824 825 826 827 828 828 829 829 830 830 831 831 832 832 833 833 833 833 833 833 832 831 831 830 829 829 830 830 829 828 827 826 825 825 824 824 823 822
717 720 724 728 731 733 737 739 742 744 747 750 753 757 761 763 766 769 772 774 777 780 782 784 786 787 789 791 794 795 797 799 800 802 804 806 808 810 812 813 814 815 816 817 818 819 820 821 822 823 824 825 825 826 826 827 827 827 828 828 829 829 829 830 830 830 830 830 829 827 826 827 827 827 828 828 827 826 825 824 824 823 822 821 820
712 716 720 724 727 730 734 736 738 741 744 747 751 753 757 759 762 765 768 771 774 776 779 782 783 785 786 787 790 792 793 795 796 798 800 802 805 807 809 810 811 812 813 814 815 816 817 818 818 819 820 821 822 823 823 823 823 824 824 825 825 825 825 825 826 826 826 826 825 824 823 824 824 825 826 826 825 824 823 823 822 821 820 819 818
709 712 716 720 724 727 730 733 736 739 741 745 748 750 753 756 758 762 764 768 770 773 776 779 780 782 784 785 787 788 790 792 793 795 797 799 801 803 806 808 809 810 811 811 812 813 814 815 816 816 817 818 819 820 820 820 820 820 821 821 821 821 821 821 821 822 822 822 822 821 820 821 821 822 823 823 823 822 822 821 820 819 817 816 815
706 709 712 716 719 723 727 730 733 736 739 742 744 747 749 752 755 758 761 764 767 769 772 775 777 779 781 783 784 785 787 788 790 792 793 795 798 800 803 805 806 807 808 809 810 810 811 812 813 813 814 814 815 816 818 818 818 818 818 818 818 818 818 817 818 818 818 818 818 818 818 818 818 819 820 820 820 820 820 819 818 817 816 814 813
703 705 707 711 715 718 722 726 729 732 735 738 740 743 746 749 753 756 758 761 763 766 769 771 774 776 778 780 781 782 784 785 787 788 790 792 794 797 799 801 803 804 805 806 807 808 808 809 810 810 811 811 811 813 814 815 816 815 815 815 816 816 815 815 815 815 815 815 815 816 816 816 816 816 817 817 818 818 818 817 815 815 815 814 812
699 701 703 706 710 714 718 722 725 729 731 733 736 739 743 746 750 753 756 758 760 763 765 768 770 773 774 776 778 780 781 782 784 785 787 789 791 793 796 798 799 800 802 803 804 805 806 806 807 807 807 807 808 809 811 812 812 812 813 813 813 813 813 814 814 813 813 813 813 813 813 814 814 814 814 815 815 816 816 814 812 813 813 812 811
695 696 699 703 707 711 715 718 721 724 727 730 734 737 740 744 747 750 753 755 758 760 762 765 767 769 771 773 774 776 778 779 781 782 784 785 787 789 792 794 796 797 799 800 801 802 802 803 803 804 804 804 805 806 807 808 809 809 810 811 810 810 810 812 812 811 811 810 810 810 810 810 811 811 812 813 813 813 812 810 810 811 810 810 809
690 693 697 701 705 709 712 715 718 721 724 728 732 735 738 741 745 747 750 753 755 757 759 761 763 765 767 769 770 772 774 775 777 778 780 782 784 786 788 790 792 793 795 796 797 797 798 798 798 799 800 800 801 802 803 804 805 806 807 808 807 807 808 810 810 809 809 808 808 808 807 808 808 809 810 810 810 810 809 808 808 808 807 807 807
688 692 695 698 702 706 709 713 716 719 722 726 730 733 735 738 741 744 747 749 752 754 756 758 760 761 763 765 766 768 770 771 772 774 776 778 780 782 784 785 787 789 791 792 793 793 793 793 794 794 795 796 797 798 799 800 801 803 803 804 804 805 806 807 807 806 806 806 806 806 805 806 806 806 807 807 807 807 806 804 805 805 805 805 805
686 689 692 696 699 703 706 710 713 718 721 724 726 729 732 735 737 740 743 746 747 750 752 754 756 758 759 761 762 764 765 767 768 770 772 774 775 778 780 781 783 785 787 788 788 789 789 789 789 790 791 792 793 795 796 797 798 799 799 800 801 802 803 803 804 804 804 804 804 804 804 803 803 803 804 804 805 805 803 802 802 803 804 803 803
682 686 690 694 698 701 705 707 711 715 718 720 723 726 728 731 734 736 739 742 744 746 749 750 752 754 755 757 759 760 762 763 764 766 768 770 772 774 776 777 779 781 782 783 784 785 785 786 787 787 788 789 790 791 792 793 794 794 795 796 798 799 799 800 800 801 801 801 801 801 801 801 801 800 801 801 802 802 801 801 801 802 802 801 801
679 684 688 693 697 700 703 706 709 712 715 718 720 723 725 728 730 732 735 738 740 742 745 747 749 750 752 754 755 756 758 759 760 762 764 766 768 770 772 774 776 777 779 780 781 782 783 784 784 785 785 786 786 787 788 789 790 790 791 793 794 795 796 796 797 797 798 798 798 798 798 797 797 797 798 798 798 799 799 799 799 799 799 799 799
677 681 686 690 695 699 702 704 706 709 712 714 716 719 721 724 726 729 731 734 736 738 741 743 746 747 749 750 751 753 755 756 757 759 761 763 764 766 768 770 771 773 775 776 778 779 780 781 781 782 782 782 783 784 784 785 786 787 788 789 790 791 791 792 793 794 793 793 793 794 794 793 793 794 794 795 795 796 796 796 797 797 797 796 796
674 679 684 688 692 696 699 701 704 706 708 711 713 715 718 720 722 725 727 730 732 735 737 739 742 744 745 746 748 750 751 753 754 755 757 759 760 762 764 766 768 770 771 773 775 776 777 778 778 779 779 780 780 780 781 782 783 784 785 786 787 787 788 788 789 789 789 789 790 790 790 790 790 791 791 792 792 793 793 794 794 794 794 794 795
672 676 680 685 689 692 695 697 700 702 705 707 710 712 714 716 718 720 723 725 728 730 733 735 737 740 741 743 745 746 748 749 750 751 753 754 756 758 761 762 764 766 768 770 771 773 774 775 776 776 777 778 778 778 778 779 780 780 781 782 783 784 784 784 785 785 785 785 786 786 787 787 787 788 788 788 789 790 791 791 792 792 793 794 795
669 674 678 682 686 688 691 693 695 698 700 702 705 707 709 711 713 715 717 720 722 725 728 730 732 735 737 739 741 743 744 745 746 746 747 749 752 755 756 758 759 761 763 765 768 770 772 773 773 774 775 776 776 776 776 776 777 778 778 779 779 780 780 781 781 782 782 782 783 784 784 784 784 785 785 786 787 788 788 789 790 792 793 794 794
667 671 674 679 682 685 686 689 692 694 696 698 701 703 705 707 709 711 714 716 719 722 724 726 729 731 733 735 736 738 739 740 741 742 743 746 749 751 752 753 755 756 759 762 765 768 769 770 771 772 772 773 773 773 773 774 774 775 775 775 775 776 776 777 777 778 778 779 780 780 781 781 782 783 784 785 785 786 786 788 790 791 792 793 793
665 668 671 674 677 680 682 684 687 689 691 694 697 699 701 704 706 708 711 714 718 720 722 724 726 728 730 732 733 734 735 736 738 740 741 743 745 747 748 749 751 753 756 759 762 764 765 766 767 768 769 769 769 769 770 770 770 771 771 771 772 772 772 773 773 773 775 775 776 777 778 779 780 781 782 784 784 784 786 788 789 790 791 791 792
663 665 668 670 672 674 677 679 682 684 687 689 692 694 698 701 703 706 709 713 716 719 720 723 725 726 728 729 730 731 733 734 736 738 739 740 742 744 745 747 749 751 754 756 758 760 762 763 764 764 765 766 765 765 766 766 766 766 767 767 768 769 769 769 770 770 771 772 774 775 777 778 779 780 782 783 784 785 786 788 789 789 790 790 790
669 666 666 668 669 671 673 675 677 680 682 685 688 691 694 698 701 704 708 711 714 717 719 721 722 724 725 727 727 728 730 732 734 735 736 737 739 741 743 745 747 749 751 753 755 756 758 759 760 760 761 762 761 761 762 762 762 762 763 763 765 766 766 768 769 769 770 771 772 774 776 777 779 781 783 784 785 787 789 791 791 790 790 790 789
678 676 671 668 667 669 670 671 674 676 678 681 684 687 691 695 699 703 706 709 712 715 717 719 720 722 723 724 725 727 729 730 731 733 734 736 737 739 742 744 746 747 749 750 752 753 755 756 756 757 757 758 758 758 759 759 759 760 760 760 762 763 765 766 768 769 769 770 772 774 776 779 781 783 785 787 789 791 793 794 793 792 791 790 789
677 683 682 673 667 667 668 669 671 674 676 678 681 684 688 692 696 700 704 707 710 713 715 717 719 720 722 723 725 726 728 729 730 731 733 734 736 738 740 742 744 746 747 748 749 750 752 752 753 753 754 754 755 755 756 756 757 758 758 758 760 762 764 765 767 769 770 772 774 776 778 781 783 785 787 789 792 794 795 796 796 794 792 791 789
674 683 687 680 670 666 666 667 669 672 674 676 678 682 686 690 694 698 701 705 708 711 713 716 717 719 721 723 725 726 727 728 729 731 732 733 735 737 738 740 742 743 744 745 746 748 749 749 749 750 751 751 752 753 754 754 755 756 756 757 759 761 763 765 767 769 771 774 777 779 780 782 783 785 787 788 790 791 792 794 796 795 793 791 789
674 679 684 681 672 665 664 665 668 670 673 674 677 680 685 688 692 695 698 702 705 708 711 714 716 718 720 722 723 725 726 728 729 730 732 733 734 735 736 738 739 740 741 743 745 746 747 747 748 748 749 750 750 751 752 752 753 754 756 757 759 762 764 765 766 767 769 773 778 780 782 783 784 786 787 787 787 787 787 789 791 793 793 792 789
678 678 679 677 671 664 662 663 666 668 671 673 676 679 683 687 690 692 696 699 702 705 709 711 714 717 719 720 722 724 726 727 729 730 731 732 733 734 735 736 738 739 740 741 743 745 746 746 747 748 748 749 749 749 750 751 752 753 754 756 758 760 762 763 763 764 766 769 773 776 779 781 782 785 788 789 788 787 786 786 788 790 792 791 789
682 679 676 672 666 662 662 663 665 668 670 672 675 678 682 685 688 691 694 697 701 704 707 710 714 716 718 720 722 724 726 727 728 729 730 731 732 733 735 736 737 739 739 740 742 744 745 746 747 747 746 747 747 747 748 749 749 750 752 753 755 757 759 759 760 762 765 768 771 773 775 777 779 782 785 788 789 788 786 786 787 788 789 788 787
685 683 679 672 665 662 663 665 667 669 672 673 676 679 682 684 688 691 694 697 700 704 707 711 715 717 719 721 723 724 726 727 728 729 730 731 732 733 735 737 738 738 738 739 740 741 743 744 744 744 744 744 745 746 747 748 748 749 751 753 755 756 757 758 760 763 767 771 773 774 776 778 779 779 780 783 785 786 786 786 786 786 786 785 785
687 685 681 675 668 665 665 666 669 672 675 679 682 685 685 686 689 692 694 698 701 705 708 712 716 719 721 723 724 725 727 728 729 729 731 731 733 734 736 737 737 737 737 738 738 739 740 740 741 742 742 743 744 745 746 747 749 751 753 755 756 757 758 759 761 764 768 772 775 776 777 778 778 777 777 778 782 784 785 785 785 784 784 783 782
685 684 681 677 672 668 666 668 672 676 680 683 686 689 689 690 693 696 698 700 704 708 711 715 718 721 723 724 725 726 728 729 729 730 731 732 733 735 735 736 736 736 736 737 738 738 738 738 740 741 742 744 745 746 746 747 748 750 752 755 756 757 759 761 762 764 767 770 773 775 776 776 775 775 775 776 778 781 782 782 782 782 781 781 780
684 683 682 679 677 673 671 672 676 680 683 686 689 692 695 696 699 701 702 704 708 712 714 718 721 724 725 726 726 727 728 729 730 731 731 732 733 734 735 736 737 737 737 738 739 739 739 739 740 742 743 745 746 747 748 749 750 751 753 755 757 758 760 763 765 766 768 769 772 775 776 775 774 774 775 775 777 779 780 780 779 779 779 779 779
686 685 684 684 684 682 681 680 682 685 689 692 695 699 700 702 703 705 705 707 711 715 717 721 724 726 727 728 728 729 730 731 732 732 733 734 734 735 736 737 738 738 738 739 741 741 741 741 742 744 745 746 747 748 749 751 752 753 756 758 759 761 762 764 766 768 770 771 772 774 775 773 772 773 775 776 777 778 778 778 777 776 776 777 777
689 689 689 689 690 691 690 689 691 694 698 700 702 703 705 706 707 708 709 711 715 718 721 724 726 727 729 731 732 732 734 735 736 736 736 736 737 738 739 739 739 740 740 741 743 743 743 744 745 746 746 747 748 750 751 752 752 754 757 759 760 762 763 765 766 767 769 771 772 773 773 773 773 774 775 776 776 777 777 776 776 775 775 775 776
692 693 693 693 695 697 698 698 699 702 705 707 708 708 709 710 711 711 713 715 719 722 724 726 727 729 733 735 736 737 738 739 740 740 741 740 740 740 741 741 741 741 742 743 744 745 745 745 746 747 748 750 750 751 752 753 754 756 758 760 761 763 765 766 766 765 766 768 770 771 772 773 774 774 775 775 776 776 776 775 775 775 774 774 775
698 699 699 699 700 703 705 707 707 709 711 713 713 713 714 714 714 715 717 720 723 726 727 728 730 732 735 737 739 741 741 741 742 743 743 744 744 744 744 744 744 744 745 746 747 747 747 748 749 751 753 754 754 753 754 755 756 758 759 760 762 763 765 766 766 765 766 767 768 769 770 771 772 774 774 774 774 775 774 774 775 775 774 774 774
706 706 706 706 706 708 711 713 715 716 718 719 719 718 718 718 719 721 724 726 727 729 730 732 734 737 739 741 743 745 745 745 745 746 746 747 747 747 747 747 748 748 749 750 750 751 752 753 753 755 757 758 757 757 757 757 758 759 760 761 762 763 765 765 765 765 765 766 766 766 768 770 772 773 775 775 774 774 773 774 774 774 774 774 774
714 714 714 713 712 713 716 720 723 724 725 726 726 725 724 724 725 727 729 730 731 732 733 735 738 741 743 746 748 749 749 750 750 750 751 751 751 751 750 751 751 752 752 753 754 755 756 757 758 758 759 761 761 760 760 760 761 761 762 763 764 764 765 765 765 765 765 766 766 767 768 770 771 773 774 775 775 774 774 774 774 774 774 774 773
720 720 720 721 720 721 724 727 730 732 732 731 730 730 730 730 731 732 733 733 734 735 736 738 741 744 747 749 751 752 753 753 754 755 755 756 755 755 755 755 755 755 756 757 758 759 760 761 762 762 763 764 764 764 764 764 763 764 764 765 765 765 765 766 766 767 767 768 768 768 769 770 771 772 773 774 775 775 775 775 775 775 775 774 774
725 726 727 729 730 731 732 733 734 735 736 734 733 733 734 735 735 736 737 737 738 739 740 742 744 746 749 751 754 755 756 757 758 759 760 760 761 761 760 760 759 759 760 761 762 762 763 764 765 766 767 767 768 768 768 767 767 767 767 767 767 766 766 767 767 768 768 768 769 769 769 770 771 772 773 774 775 775 775 776 776 776 776 776 775
730 731 733 734 736 737 737 736 736 737 739 738 737 737 738 739 740 740 740 741 741 742 744 745 747 749 751 754 756 757 759 761 762 763 764 765 766 766 766 766 765 765 765 766 766 766 767 768 769 770 771 771 771 771 771 772 772 772 771 770 769 768 768 769 769 769 769 769 769 770 770 772 773 774 774 775 775 775 776 776 776 776 776 776 775